Location: ??
(35.3149°N, 139.6204°E)
Time: 10:34:23
(UTC+00:00)

Exosat Rocket - Pass Details

Date: 03 August 2024
Orbit: 761 x 2513 km, 72.3° (Epoch: 10 September)

Event Time Altitude Azimuth Distance (km) Brightness Sun altitude
Rises 12:34:58 0° 340° (NNW) 3,232 7.9 -28.7°
Reaches altitude 10° 12:37:14 10° 340° (NNW) 2,301 6.8 -29.0°
Enters shadow 12:41:36 70° 336° (NNW) 855 3.7 -29.5°
